Location: Nairn
(57.5833°N, 3.8667°W)
Time: 08:23:44
(UTC+00:00)

Vanguard 1 - Pass Details

Date: 26 November 2020
Orbit: 649 x 3834 km, 34.3° (Epoch: 15 January)

Event Time Altitude Azimuth Distance (km) Brightness Sun altitude
Rises 09:51:29 0° 249° (WSW) 4,875 13.5 6.7°
Reaches altitude 10° 09:55:16 10° 235° (SW) 4,337 13.5 7.0°
Maximum altitude 10:03:53 22° 191° (S) 4,341 14.3 7.5°
Drops below altitude 10° 10:15:59 10° 150° (SSE) 6,271 17.3 8.2°
Sets 10:23:20 0° 139° (SE) 7,695 16.3 8.6°
